User: anonymous   Login
Location: Campillo
(40.8621°N, 4.2488°W)
Time: 02:30:36
(UTC+00:00)
Language:

Cosmos 2084 - Orbit

View from above orbital plane
View from above orbital plane
View from above satellite
View from above satellite

Ground track
Ground track

The orbit data is extracted from the following two-line orbital elements,

1 20663U 90055A   21337.00900383  .00000299  00000-0  44885-4 0  9998
2 20663  62.7921 186.2870 0094828  28.5880 332.0366 14.92395416702972
Epoch (UTC): 03 December 2021 00:12:57
Eccentricity: 0.0094828
inclination: 62.7921°
perigee height: 524 km
apogee height: 656 km
right ascension of ascending node: 186.2870°
argument of perigee: 28.5880°
revolutions per day: 14.92395416
mean anomaly at epoch: 332.0366°
orbit number at epoch: 70297

The dashed part of the orbit path shows where the satellite is in the earth's shadow,  

DLR